Location: Gisborne
(38.6530°S, 178.0040°E)
Time: 12:10:40
(UTC+13:00)

Terra - Pass Details

Date: 24 January 2019
Orbit: 701 x 703 km, 98.2° (Epoch: 16 February)

Event Time Altitude Azimuth Distance (km) Brightness Sun altitude
Rises 23:11:43 0° 156° (SSE) 3,129 5.6 -24.8°
Reaches altitude 10° 23:14:16 10° 145° (SE) 2,202 4.6 -25.1°
Enters shadow 23:16:51 24° 118° (ESE) 1,458 3.4 -25.3°
